Flag for South Africa Weather past 2 weeks in Rustenburg, South Africa

Now
39 °F

Sunny.


Feels Like: 39 °F
Forecast: 29 / 70 °F
Wind: No wind

Location: Lanseria Civ / Mil

Current Time: Aug 2, 2015 at 9:15:14 AM

Latest Report: Aug 2, 2015 at 8:00 AM


Visibility: 10 mi

Pressure: 30.54 "Hg (26.45 "Hg at 1166m altitude)

Humidity: 45%

Dew point: 19 °F

Location of RustenburgLocation

Historic Weather in Rustenburg — Graph

°F

Rustenburg temperature yesterday

Maximum temperature yesterday: 68 °F (at 1:47 PM)
Minimum temperature yesterday: 32 °F (at 6:00 AM)
Average temperature yesterday: 49 °F

Past Weeks' High & Low Weather Summary

 TemperatureHumidityPressure
High73 °F (Jul 20, 2:00 PM)100% (Jul 25, 12:00 AM)30.54 "Hg (Jul 25, 12:00 AM)
Low32 °F (Aug 1, 6:00 AM)7% (Jul 30, 4:00 PM)30.07 "Hg (Jul 24, 3:00 PM)
Average53 °F44%30.29 "Hg
* Reported Jul 18 8:00 AM — Aug 2 8:00 AM, Rustenburg, Weather by CustomWeather, © 2015

Note: Actual official high and low records may vary slightly from our data, if they occured in-between our weather recording intervals... More about our weather records

Advertising

Rustenburg weather history for previous 24 hours

 ConditionsComfort  
Time TempWeatherWind HumidityBarometerVisibility
8:00 AM
Sun, Aug 2
39 °FSunny.No wind45%30.54 "Hg10 mi
7:00 AM34 °FSunny.2 mph51%30.51 "Hg10 mi
6:00 AM34 °FSunny.No wind56%30.51 "Hg10 mi
5:00 AM34 °FChilly.2 mph51%30.48 "HgN/A
4:00 AM36 °FChilly.5 mph48%30.48 "HgN/A
3:00 AM36 °FChilly.3 mph52%30.48 "HgN/A
2:00 AM41 °FQuite cool.2 mph39%30.48 "HgN/A
1:00 AM41 °FQuite cool.2 mph39%30.51 "HgN/A
12:00 AM43 °FQuite cool.6 mph36%30.51 "HgN/A
11:00 PM
Sat, Aug 1
41 °FQuite cool.5 mph39%30.51 "HgN/A
10:00 PM50 °FClear.5 mph24%30.51 "Hg10 mi
9:00 PM50 °FClear.No wind24%30.48 "Hg10 mi
8:00 PM50 °FPassing clouds.5 mph22%30.48 "HgN/A
7:00 PM55 °FClear.5 mph15%30.45 "Hg10 mi
6:00 PM59 °FClear.6 mph13%30.42 "Hg10 mi
5:00 PM64 °FClear.9 mph10%30.42 "Hg10 mi
4:00 PM66 °FPassing clouds.8 mph9%30.39 "HgN/A
3:00 PM66 °FSunny.6 mph9%30.42 "Hg10 mi
2:00 PM64 °FPassing clouds.7 mph7%30.42 "HgN/A
1:47 PM68 °FSunny.6 mph7%30.42 "Hg10 mi
1:00 PM63 °FSunny.5 mph9%30.45 "Hg10 mi
12:00 PM61 °FSunny.3 mph11%30.48 "Hg10 mi
11:00 AM54 °FSunny.5 mph18%30.51 "Hg10 mi
10:00 AM50 °FSunny.5 mph25%30.51 "Hg10 mi
9:00 AM45 °FPassing clouds.3 mph34%30.51 "HgN/A
Weather by CustomWeather, © 2015

See weather overviewHow to use our weather pages